User: anonymous   Login
Location: Unspecified
(0.0000°N, 0.0000°E)
Time: 22:33:01
(UTC+00:00)
Language:

UFO F7 - Orbit

View from above orbital plane
View from above orbital plane
View from above satellite
View from above satellite

Ground track
Ground track

The orbit is defined by the following mean orbital elements,

1 23967U          26140.38897310 +.00000000 +00000-0 +00000-0 0 00002
2 23967  11.0907  17.2363 0005451 100.9287 220.5563  1.00223557    09
Epoch (UTC): 20 May 2026 09:20:07
Eccentricity: 0.0005451
inclination: 11.0907°
perigee height: 35777 km
apogee height: 35823 km
right ascension of ascending node: 17.2363°
argument of perigee: 100.9287°
revolutions per day: 1.00223557
mean anomaly at epoch: 220.5563°

The dashed part of the orbit path shows where the satellite is in the earth's shadow,  

DLR